Weather History for Midland, MI

Change the Weather History Date:

Tuesday, June 12, 2012

  Actual Average (KMBS) Record (KMBS)
Temperature  
Mean Temperature 64 °F 66 °F  
Max Temperature 75 °F 77 °F 89 °F (1999)
Min Temperature 51 °F 56 °F 45 °F (2006)
Degree Days  
Heating Degree Days 2    
Month to date heating degree days  
Since 1 June heating degree days  
Since 1 July heating degree days  
Cooling Degree Days 0    
Month to date cooling degree days  
Year to date cooling degree days  
Since 1 June cooling degree days  
Growing Degree Days 14 (Base 50)    
Moisture  
Dew Point 54 °F    
Average Humidity 62    
Maximum Humidity 91    
Minimum Humidity 36    
Precipitation  
Precipitation 0.04 in 0.11 in 2.10 in (2000)
Month to date precipitation 1.19  
Year to date precipitation 12.84  
Snow  
Snow 0.00 in - - ()
Month to date snowfall  
Since 1 June snowfall  
Since 1 July snowfall  
Snow Depth -    
Sea Level Pressure  
Sea Level Pressure 29.91 in    
Wind  
Wind Speed 8 mph (WNW)    
Max Wind Speed 16 mph    
Max Gust Speed 25 mph    
Visibility 10 miles    
Events Rain    
T = Trace of Precipitation, MM = Missing Value Source: NWS Daily Summary

Daily Weather History Graph

Daily Weather History Graph

Search for Another Location

Airport:

Trip Planner

Search our weather history database for the weather conditions in past years. The results will help you decide how hot, cold, wet, or windy it might be!

Date:

Astronomy

Jun. 12, 2012 Rise Set
Actual Time 5:54 AM EDT 9:19 PM EDT
Civil Twilight 5:19 AM EDT 9:55 PM EDT
Nautical Twilight 4:32 AM EDT 10:42 PM EDT
Astronomical Twilight 3:33 AM EDT 11:41 PM EDT
Moon 1:50 AM EDT (6/12) 2:58 PM EDT (6/12)
Length of Visible Light 16h 36m
Length of Day
15h 24m
Last Quarter, 38% of the Moon is Illuminated
Jun 12
Last Quarter
Jun 19
New
Jun 26
First Quarter
Jul 3
Full
Jul 10
Last Quarter

Hourly Weather History & Observations

Time (EDT) Temp. Dew Point Humidity Pressure Visibility Wind Dir Wind Speed Gust Speed Precip Events Conditions
12:11 AM 75.4 °F 67.1 °F 75% 29.79 in 10.0 mi South 6.9 mph - N/A   Mostly Cloudy
12:32 AM 75.0 °F 67.1 °F 76% 29.81 in 10.0 mi West 13.8 mph - N/A   Mostly Cloudy
12:51 AM 71.4 °F 62.1 °F 72% 29.80 in 10.0 mi WNW 6.9 mph - 0.02 in Rain Light Rain
1:11 AM 68.9 °F 63.5 °F 83% 29.79 in 10.0 mi WSW 3.5 mph - N/A   Mostly Cloudy
1:32 AM 70.7 °F 66.2 °F 86% 29.78 in 10.0 mi South 5.8 mph - 0.02 in Rain Light Rain
1:51 AM 71.1 °F 66.7 °F 86% 29.77 in 10.0 mi SSE 3.5 mph - 0.02 in   Clear
2:11 AM 71.6 °F 67.6 °F 87% 29.77 in 10.0 mi SSE 3.5 mph - N/A   Clear
2:32 AM 71.6 °F 68.2 °F 89% 29.77 in 10.0 mi South 3.5 mph - N/A   Scattered Clouds
2:51 AM 71.6 °F 68.4 °F 89% 29.76 in 7.0 mi South 3.5 mph - N/A   Scattered Clouds
3:11 AM 71.6 °F 68.2 °F 89% 29.76 in 7.0 mi South 3.5 mph - N/A   Scattered Clouds
3:32 AM 70.9 °F 68.0 °F 91% 29.76 in 7.0 mi South 3.5 mph - N/A   Scattered Clouds
3:51 AM 70.7 °F 68.0 °F 91% 29.76 in 7.0 mi WSW 5.8 mph - N/A   Mostly Cloudy
4:11 AM 70.9 °F 68.0 °F 91% 29.76 in 7.0 mi WSW 4.6 mph - N/A   Scattered Clouds
4:32 AM 70.7 °F 67.5 °F 89% 29.76 in 7.0 mi West 6.9 mph - N/A   Clear
4:51 AM 69.8 °F 66.0 °F 88% 29.78 in 10.0 mi West 8.1 mph - N/A   Clear
5:11 AM 68.9 °F 64.9 °F 87% 29.78 in 10.0 mi WNW 6.9 mph - N/A   Scattered Clouds
5:32 AM 67.3 °F 63.7 °F 88% 29.79 in 10.0 mi West 4.6 mph - N/A   Clear
5:51 AM 66.7 °F 62.1 °F 85% 29.80 in 10.0 mi West 5.8 mph - N/A   Clear
6:12 AM 65.3 °F 60.3 °F 84% 29.81 in 10.0 mi West 6.9 mph - N/A   Clear
6:31 AM 64.6 °F 58.8 °F 82% 29.82 in 10.0 mi West 5.8 mph - N/A   Clear
6:51 AM 64.8 °F 58.1 °F 79% 29.83 in 10.0 mi West 3.5 mph - N/A   Scattered Clouds
7:12 AM 65.3 °F 59.0 °F 80% 29.84 in 10.0 mi West 3.5 mph - N/A   Clear
7:32 AM 66.4 °F 58.3 °F 75% 29.84 in 10.0 mi West 3.5 mph - N/A   Clear
7:51 AM 67.1 °F 57.6 °F 71% 29.85 in 10.0 mi West 4.6 mph - N/A   Clear
7:56 AM 67.1 °F 57.7 °F 72% 29.85 in 10.0 mi West 5.8 mph - N/A   Clear
8:31 AM 67.8 °F 56.3 °F 67% 29.86 in 10.0 mi West 8.1 mph - N/A   Clear
8:52 AM 68.7 °F 55.9 °F 64% 29.87 in 10.0 mi WNW 6.9 mph 16.1 mph N/A   Clear
9:12 AM 68.9 °F 54.9 °F 61% 29.87 in 10.0 mi West 8.1 mph 18.4 mph N/A   Clear
9:31 AM 69.1 °F 53.8 °F 58% 29.87 in 10.0 mi WNW 12.7 mph 17.3 mph N/A   Clear
9:52 AM 70.7 °F 54.5 °F 56% 29.87 in 10.0 mi West 12.7 mph 17.3 mph N/A   Clear
10:12 AM 70.7 °F 54.3 °F 56% 29.87 in 10.0 mi WNW 9.2 mph 16.1 mph N/A   Clear
10:52 AM 71.4 °F 53.2 °F 53% 29.87 in 10.0 mi West 9.2 mph 12.7 mph N/A   Scattered Clouds
11:11 AM 70.5 °F 52.9 °F 54% 29.87 in 10.0 mi WNW 9.2 mph - N/A   Mostly Cloudy
11:31 AM 72.1 °F 52.0 °F 49% 29.88 in 10.0 mi West 9.2 mph - N/A   Scattered Clouds
11:52 AM 70.9 °F 50.7 °F 49% 29.89 in 10.0 mi West 10.4 mph 17.3 mph N/A   Mostly Cloudy
12:12 PM 71.8 °F 50.2 °F 46% 29.90 in 10.0 mi West 12.7 mph 19.6 mph N/A   Mostly Cloudy
12:31 PM 73.2 °F 48.6 °F 42% 29.90 in 10.0 mi West 13.8 mph 21.9 mph N/A   Scattered Clouds
12:52 PM 73.8 °F 48.6 °F 41% 29.91 in 10.0 mi West 12.7 mph 18.4 mph N/A   Scattered Clouds
1:11 PM 73.9 °F 48.4 °F 40% 29.91 in 10.0 mi WNW 12.7 mph 25.3 mph N/A   Scattered Clouds
1:31 PM 72.7 °F 47.5 °F 41% 29.92 in 10.0 mi West 13.8 mph 19.6 mph N/A   Scattered Clouds
1:52 PM 73.9 °F 46.9 °F 38% 29.92 in 10.0 mi West 13.8 mph 20.7 mph N/A   Scattered Clouds
2:11 PM 74.1 °F 46.6 °F 37% 29.93 in 10.0 mi WNW 11.5 mph 23.0 mph N/A   Scattered Clouds
2:31 PM 74.3 °F 47.7 °F 39% 29.93 in 10.0 mi WNW 12.7 mph 18.4 mph N/A   Scattered Clouds
2:52 PM 74.1 °F 45.7 °F 36% 29.93 in 10.0 mi WNW 16.1 mph 21.9 mph N/A   Scattered Clouds
3:11 PM 74.7 °F 48.4 °F 39% 29.93 in 10.0 mi WNW 11.5 mph 17.3 mph N/A   Scattered Clouds
3:31 PM 73.8 °F 48.0 °F 40% 29.94 in 10.0 mi NW 11.5 mph 21.9 mph N/A   Mostly Cloudy
3:52 PM 75.7 °F 46.9 °F 36% 29.94 in 10.0 mi WNW 15.0 mph 21.9 mph N/A   Scattered Clouds
4:12 PM 74.1 °F 46.0 °F 37% 29.95 in 10.0 mi NW 15.0 mph 20.7 mph N/A   Scattered Clouds
4:32 PM 74.3 °F 46.4 °F 37% 29.95 in 10.0 mi NNW 13.8 mph 21.9 mph N/A   Scattered Clouds
4:52 PM 73.0 °F 46.2 °F 38% 29.96 in 10.0 mi NW 15.0 mph 19.6 mph N/A   Scattered Clouds
5:11 PM 73.4 °F 46.2 °F 38% 29.97 in 10.0 mi WNW 16.1 mph 20.7 mph N/A   Scattered Clouds
5:32 PM 72.0 °F 46.0 °F 40% 29.98 in 10.0 mi NW 13.8 mph 21.9 mph N/A   Scattered Clouds
5:52 PM 70.9 °F 45.5 °F 40% 29.99 in 10.0 mi WNW 9.2 mph 19.6 mph N/A   Scattered Clouds
6:12 PM 71.2 °F 46.6 °F 41% 29.99 in 10.0 mi NW 10.4 mph 19.6 mph N/A   Mostly Cloudy
6:32 PM 70.5 °F 45.9 °F 41% 30.00 in 10.0 mi NW 11.5 mph 24.2 mph N/A   Scattered Clouds
6:51 PM 69.3 °F 44.6 °F 41% 30.01 in 10.0 mi NW 13.8 mph 24.2 mph N/A   Clear
7:12 PM 68.9 °F 45.0 °F 42% 30.02 in 10.0 mi NW 10.4 mph 20.7 mph N/A   Clear
7:32 PM 67.8 °F 46.8 °F 47% 30.03 in 10.0 mi NW 15.0 mph 21.9 mph N/A   Clear
7:51 PM 66.7 °F 47.5 °F 50% 30.04 in 10.0 mi NNW 16.1 mph 23.0 mph N/A   Scattered Clouds
8:12 PM 64.9 °F 45.9 °F 50% 30.05 in 10.0 mi NW 11.5 mph 21.9 mph N/A   Clear
8:32 PM 63.5 °F 45.5 °F 52% 30.06 in 10.0 mi NW 12.7 mph 17.3 mph N/A   Clear
8:51 PM 62.2 °F 44.8 °F 53% 30.07 in 10.0 mi NW 11.5 mph 17.3 mph N/A   Clear
9:12 PM 60.6 °F 44.8 °F 56% 30.08 in 10.0 mi NW 10.4 mph 18.4 mph N/A   Clear
9:32 PM 59.2 °F 43.9 °F 57% 30.09 in 10.0 mi NW 11.5 mph 16.1 mph N/A   Clear
9:52 PM 57.6 °F 44.2 °F 61% 30.09 in 10.0 mi NNW 3.5 mph - N/A   Clear
10:12 PM 56.5 °F 44.6 °F 64% 30.11 in 10.0 mi NNW 5.8 mph - N/A   Clear
10:31 PM 55.6 °F 44.2 °F 66% 30.11 in 10.0 mi NNW 4.6 mph - N/A   Clear
10:52 PM 54.9 °F 43.9 °F 66% 30.12 in 10.0 mi NNW 3.5 mph - N/A   Clear
11:12 PM 53.4 °F 44.4 °F 72% 30.13 in 10.0 mi Calm Calm - N/A   Clear
11:32 PM 52.5 °F 45.0 °F 75% 30.13 in 10.0 mi Calm Calm - N/A   Clear
11:52 PM 51.1 °F 44.6 °F 78% 30.14 in 10.0 mi Calm Calm - N/A   Clear